User: anonymous   Login
Location: Carbonear
(47.7333°N, 53.2500°W)
Time: 13:38:37
(UTC+00:00)
Language:

RS-44 - Orbit

View from above orbital plane
View from above orbital plane
View from above satellite
View from above satellite

Ground track
Ground track

The orbit data is extracted from the following two-line orbital elements,

1 44909U 19096E   22341.67660297  .00000009  00000-0  12791-5 0  9990
2 44909  82.5200 115.2051 0216419 274.7069  82.9348 12.79716937137667
Epoch (UTC): 07 December 2022 16:14:18
Eccentricity: 0.0216419
inclination: 82.5200°
perigee height: 1175 km
apogee height: 1509 km
right ascension of ascending node: 115.2051°
argument of perigee: 274.7069°
revolutions per day: 12.79716937
mean anomaly at epoch: 82.9348°
orbit number at epoch: 13766

The dashed part of the orbit path shows where the satellite is in the earth's shadow,  

DLR